FW3866 Weather Reports


time (UTC)temp
C
wind
direction
speed
KPH
gust
KPH
rain 1hr
cm
rain 24hr
cm
rain mn
cm
humidity
%
barometer
mb
20260508044913 6 87 8.0 8.0 0.00 0.00 0.00 60 1011.4
20260508044414 6 86 6.4 8.0 0.00 0.00 0.00 62 1011.4
20260508043414 6 86 6.4 6.4 0.00 0.00 0.00 61 1011.4
20260508042914 6 85 4.8 6.4 0.00 0.00 0.00 61 1011.5
20260508041914 6 85 4.8 8.0 0.00 0.00 0.00 59 1011.6
20260508041412 6 83 6.4 8.0 0.00 0.00 0.00 59 1011.5
20260508040412 6 86 8.0 8.0 0.00 0.00 0.00 60 1011.6
20260508034913 6 0.0 6.4 0.00 0.00 0.00 55 1011.7
20260508034413 6 117 6.4 8.0 0.00 0.00 0.00 56 1011.8
20260508033411 6 117 6.4 8.0 0.00 0.00 0.00 55 1011.7
20260508032913 6 118 6.4 6.4 0.00 0.00 0.00 53 1011.7
20260508032412 6 118 6.4 6.4 0.00 0.00 0.00 53 1011.7
20260508031411 5 118 6.4 8.0 0.00 0.00 0.00 54 1011.7
20260508030912 6 118 6.4 8.0 0.00 0.00 0.00 53 1011.7
20260508030412 6 124 8.0 8.0 0.00 0.00 0.00 51 1011.8
20260508025411 6 124 4.8 6.4 0.00 0.00 0.00 48 1011.7
20260508024911 6 124 4.8 6.4 0.00 0.00 0.00 48 1011.7
20260508024410 6 124 4.8 6.4 0.00 0.00 0.00 47 1011.7
20260508023910 6 118 4.8 8.0 0.00 0.00 0.00 46 1011.7
20260508022911 7 75 6.4 6.4 0.00 0.00 0.00 46 1011.5
20260508022411 7 75 4.8 8.0 0.00 0.00 0.00 44 1011.6
20260508021910 8 65 6.4 8.0 0.00 0.00 0.00 43 1011.5
20260508020911 10 4 3.2 4.8 0.00 0.00 0.00 41 1011.5
20260508020410 11 4 3.2 4.8 0.00 0.00 0.00 39 1011.5
20260508015909 13 3 1.6 4.8 0.00 0.00 0.00 40 1011.5
20260508015410 14 3 3.2 4.8 0.00 0.00 0.00 31 1011.5
20260508014909 14 3 3.2 6.4 0.00 0.00 0.00 29 1011.4
20260508013910 15 0 4.8 6.4 0.00 0.00 0.00 29 1011.4
20260508013409 15 0 4.8 6.4 0.00 0.00 0.00 29 1011.4
20260508012910 15 0 3.2 6.4 0.00 0.00 0.00 28 1011.4
20260508012409 15 0 4.8 6.4 0.00 0.00 0.00 28 1011.5
20260508011409 16 357 3.2 8.0 0.00 0.00 0.00 28 1011.4
20260508010908 16 357 4.8 8.0 0.00 0.00 0.00 28 1011.4
20260508010408 16 350 6.4 11.3 0.00 0.00 0.00 27 1011.4
20260508005409 16 326 6.4 11.3 0.00 0.00 0.00 26 1011.4
20260508004907 17 355 6.4 9.7 0.00 0.00 0.00 26 1011.3
20260508004408 17 330 6.4 14.5 0.00 0.00 0.00 27 1011.3
20260508003907 17 331 8.0 14.5 0.00 0.00 0.00 26 1011.3
20260508003409 17 341 6.4 16.1 0.00 0.00 0.00 25 1011.3
20260508002907 17 334 9.7 16.1 0.00 0.00 0.00 24 1011.3
20260508002408 17 326 9.7 16.1 0.00 0.00 0.00 25 1011.4
20260508001907 17 343 6.4 16.1 0.00 0.00 0.00 25 1011.4
20260508001408 17 333 8.0 14.5 0.00 0.00 0.00 25 1011.3
20260508000907 17 293 9.7 14.5 0.00 0.00 0.00 25 1011.3
20260508000408 17 0.0 19.3 0.00 0.00 0.00 25 1011.3
20260507235406 17 283 14.5 27.4 0.00 0.00 0.00 24 1011.3
20260507234906 17 296 17.7 27.4 0.00 0.00 0.00 25 1011.4
20260507233907 17 282 14.5 22.5 0.00 0.00 0.00 24 1011.3
20260507232905 17 330 14.5 24.1 0.00 0.00 0.00 24 1011.5
20260507232405 17 286 9.7 20.9 0.00 0.00 0.00 24 1011.5
20260507231905 17 307 12.9 27.4 0.00 0.00 0.00 25 1011.6
20260507230905 17 319 20.9 27.4 0.00 0.00 0.00 26 1011.4
20260507230406 17 265 14.5 20.9 0.00 0.00 0.00 27 1011.2
20260507225406 18 307 17.7 25.7 0.00 0.00 0.00 24 1011.3
20260507224906 17 274 14.5 24.1 0.00 0.00 0.00 25 1011.2
20260507224405 18 282 12.9 27.4 0.00 0.00 0.00 24 1011.3
20260507223905 18 288 17.7 27.4 0.00 0.00 0.00 24 1011.2
20260507223404 18 310 16.1 22.5 0.00 0.00 0.00 25 1011.1
20260507222405 18 295 24.1 33.8 0.00 0.00 0.00 24 1011.2
20260507221904 18 313 14.5 30.6 0.00 0.00 0.00 25 1011.2
20260507221405 18 305 20.9 30.6 0.00 0.00 0.00 26 1011.3
20260507220905 18 355 17.7 33.8 0.00 0.00 0.00 22 1011.5
20260507220404 18 300 24.1 33.8 0.00 0.00 0.00 23 1011.3
20260507215903 18 323 11.3 27.4 0.00 0.00 0.00 24 1011.3
20260507214403 18 314 20.9 27.4 0.00 0.00 0.00 23 1011.6
20260507213904 17 317 17.7 27.4 0.00 0.00 0.00 23 1011.6
20260507213404 17 271 12.9 32.2 0.00 0.00 0.00 24 1011.5
20260507212905 17 292 20.9 32.2 0.00 0.00 0.00 24 1011.3
20260507212404 17 300 6.4 11.3 0.00 0.00 0.00 24 1011.7
20260507211903 17 285 9.7 14.5 0.00 0.00 0.00 24 1011.7
20260507211404 18 259 9.7 14.5 0.00 0.00 0.00 25 1011.7
20260507210903 17 44 4.8 19.3 0.00 0.00 0.00 25 1011.7
20260507205902 17 324 14.5 24.1 0.00 0.00 0.00 25 1011.7
20260507204903 17 274 17.7 30.6 0.00 0.00 0.00 26 1011.6
20260507204403 17 251 8.0 29.0 0.00 0.00 0.00 24 1011.7
20260507203901 17 285 12.9 29.0 0.00 0.00 0.00 25 1011.9
20260507203403 17 293 17.7 24.1 0.00 0.00 0.00 30 1012.0
20260507202901 17 292 8.0 20.9 0.00 0.00 0.00 25 1012.0
20260507202403 17 321 14.5 22.5 0.00 0.00 0.00 26 1012.2
20260507201901 17 11 8.0 25.7 0.00 0.00 0.00 26 1012.2
20260507200400 17 344 16.1 30.6 0.00 0.00 0.00 24 1012.2
20260507195901 17 320 17.7 30.6 0.00 0.00 0.00 24 1012.3
20260507195400 17 312 8.0 27.4 0.00 0.00 0.00 25 1012.2
20260507194900 17 3 17.7 27.4 0.00 0.00 0.00 23 1012.3
20260507193900 17 338 14.5 19.3 0.00 0.00 0.00 24 1012.4
20260507193400 16 326 14.5 29.0 0.00 0.00 0.00 29 1012.4
20260507192900 16 245 16.1 29.0 0.00 0.00 0.00 28 1012.4
20260507192400 16 257 11.3 27.4 0.00 0.00 0.00 27 1012.2
20260507191859 16 286 22.5 25.7 0.00 0.00 0.00 28 1012.3
20260507191358 16 305 9.7 27.4 0.00 0.00 0.00 28 1012.3
20260507190900 16 268 22.5 27.4 0.00 0.00 0.00 28 1012.3
20260507190359 16 293 8.0 30.6 0.00 0.00 0.00 26 1012.4
20260507185901 16 319 20.9 33.8 0.00 0.00 0.00 27 1012.3
20260507185359 16 295 29.0 33.8 0.00 0.00 0.00 27 1012.0
20260507184400 16 0 9.7 22.5 0.00 0.00 0.00 27 1012.5
20260507183901 16 319 9.7 29.0 0.00 0.00 0.00 28 1012.5
20260507183359 16 298 14.5 29.0 0.00 0.00 0.00 30 1012.4
20260507182900 16 238 22.5 27.4 0.00 0.00 0.00 31 1012.3
20260507181858 16 281 11.3 19.3 0.00 0.00 0.00 31 1012.6
20260507181358 16 49 9.7 32.2 0.00 0.00 0.00 28 1012.6
20260507180858 16 331 11.3 32.2 0.00 0.00 0.00 29 1012.9
20260507180356 16 310 14.5 22.5 0.00 0.00 0.00 30 1012.8
20260507175857 15 340 9.7 25.7 0.00 0.00 0.00 28 1012.8
20260507174858 15 305 8.0 25.7 0.00 0.00 0.00 30 1012.9
20260507173857 15 306 17.7 33.8 0.00 0.00 0.00 30 1013.1
20260507173357 16 302 24.1 33.8 0.00 0.00 0.00 29 1012.9
20260507172858 15 329 6.4 19.3 0.00 0.00 0.00 33 1013.0
20260507172358 15 0 12.9 30.6 0.00 0.00 0.00 33 1013.0
20260507171857 15 258 11.3 30.6 0.00 0.00 0.00 31 1013.2
20260507171357 15 255 14.5 22.5 0.00 0.00 0.00 30 1013.1
20260507165856 15 286 11.3 20.9 0.00 0.00 0.00 31 1013.3
20260507165356 15 307 12.9 19.3 0.00 0.00 0.00 30 1013.3
20260507164857 15 14 9.7 24.1 0.00 0.00 0.00 31 1013.3
20260507164356 15 326 14.5 24.1 0.00 0.00 0.00 32 1013.4
20260507163857 15 238 6.4 17.7 0.00 0.00 0.00 35 1013.4
20260507163356 14 314 12.9 19.3 0.00 0.00 0.00 34 1013.4
20260507162856 14 350 9.7 19.3 0.00 0.00 0.00 31 1013.5
20260507162355 14 31 8.0 14.5 0.00 0.00 0.00 32 1013.5
20260507161855 14 281 6.4 16.1 0.00 0.00 0.00 34 1013.5
20260507161357 14 0 6.4 16.1 0.00 0.00 0.00 32 1013.6
20260507160856 13 321 1.6 19.3 0.00 0.00 0.00 34 1013.6
20260507160354 13 353 9.7 19.3 0.00 0.00 0.00 33 1013.7
20260507155855 14 321 9.7 14.5 0.00 0.00 0.00 32 1013.7
20260507155355 13 35 8.0 11.3 0.00 0.00 0.00 36 1013.7
20260507154854 13 290 4.8 14.5 0.00 0.00 0.00 38 1013.6
20260507154355 13 244 9.7 14.5 0.00 0.00 0.00 35 1013.6
20260507153854 13 0 6.4 9.7 0.00 0.00 0.00 35 1013.6
20260507153355 13 0 3.2 11.3 0.00 0.00 0.00 35 1013.6
20260507152853 13 307 6.4 11.3 0.00 0.00 0.00 36 1013.6
20260507151855 13 312 8.0 11.3 0.00 0.00 0.00 34 1013.5
20260507151353 13 0 1.6 6.4 0.00 0.00 0.00 35 1013.5
20260507150854 13 261 0.0 3.2 0.00 0.00 0.00 36 1013.6
20260507150353 -17 261 1.6 6.4 0.00 0.00 0.00 1013.6
20260507145853 12 235 0.0 8.0 0.00 0.00 0.00 38 1013.6
20260507145355 12 230 6.4 8.0 0.00 0.00 0.00 40 1013.5
20260507144853 12 140 0.0 4.8 0.00 0.00 0.00 40 1013.5
20260507144353 11 140 1.6 6.4 0.00 0.00 0.00 40 1013.4
20260507143853 11 140 4.8 6.4 0.00 0.00 0.00 41 1013.4
20260507143353 11 161 1.6 6.4 0.00 0.00 0.00 44 1013.3
20260507142853 10 149 3.2 8.0 0.00 0.00 0.00 43 1013.3
20260507142352 10 154 1.6 11.3 0.00 0.00 0.00 48 1013.2
20260507141352 10 140 6.4 11.3 0.00 0.00 0.00 48 1013.2
20260507140852 9 152 8.0 11.3 0.00 0.00 0.00 49 1013.1
20260507140353 8 147 8.0 17.7 0.00 0.00 0.00 51 1013.2
20260507135852 8 159 12.9 17.7 0.00 0.00 0.00 55 1013.2
20260507134852 7 148 11.3 14.5 0.00 0.00 0.00 59 1013.0
20260507134352 6 131 9.7 16.1 0.00 0.00 0.00 61 1013.0
20260507133852 6 124 9.7 16.1 0.00 0.00 0.00 63 1013.0
20260507132350 4 120 12.9 16.1 0.00 0.00 0.00 69 1013.0
20260507131851 3 116 9.7 16.1 0.00 0.00 0.00 73 1013.0
20260507131352 3 113 11.3 16.1 0.00 0.00 0.00 73 1013.1
20260507130853 2 110 11.3 16.1 0.00 0.00 0.00 76 1013.0
20260507130352 2 102 12.9 14.5 0.00 0.00 0.00 77 1012.9
20260507125850 1 106 9.7 14.5 0.00 0.00 0.00 79 1013.0
20260507125351 1 99 8.0 14.5 0.00 0.00 0.00 79 1013.0
20260507124351 0 106 11.3 14.5 0.00 0.00 0.00 82 1012.8
20260507123850 0 92 8.0 14.5 0.00 0.00 0.00 82 1012.7
20260507123349 -17 103 9.7 11.3 0.00 0.00 0.00 1012.7
20260507122852 0 82 8.0 14.5 0.00 0.00 0.00 83 1012.6
20260507122350 -1 90 9.7 16.1 0.00 0.00 0.00 84 1012.6
20260507121850 -1 76 11.3 19.3 0.00 0.00 0.00 84 1012.5
20260507121349 -1 85 14.5 19.3 0.00 0.00 0.00 85 1012.3
20260507120850 -1 68 12.9 16.1 0.00 0.00 0.00 87 1012.3
20260507120348 -2 96 8.0 14.5 0.00 0.00 0.00 87 1012.2
20260507115350 -3 79 6.4 9.7 0.00 0.00 0.00 86 1011.9
20260507114851 -3 69 8.0 9.7 0.00 0.00 0.00 87 1011.8
20260507113849 -4 99 3.2 8.0 0.00 0.00 0.00 86 1011.8
20260507113348 -4 103 6.4 8.0 0.00 0.00 0.00 86 1011.7
20260507112848 -4 103 6.4 8.0 0.00 0.00 0.00 85 1011.7
20260507112351 -3 100 8.0 8.0 0.00 0.00 0.00 84 1011.6
20260507111847 -3 100 6.4 8.0 0.00 0.00 0.00 84 1011.6
20260507111348 -3 100 8.0 8.0 0.00 0.00 0.00 83 1011.7
20260507110848 -3 102 8.0 8.0 0.00 0.00 0.00 84 1011.7
20260507110349 -3 0.0 9.7 0.00 0.00 0.00 84 1011.7
20260507105848 -2 103 8.0 11.3 0.00 0.00 0.00 84 1011.6
20260507105348 -2 90 8.0 11.3 0.00 0.00 0.00 84 1011.7
20260507104848 -2 66 8.0 11.3 0.00 0.00 0.00 83 1011.8
20260507104347 -2 90 9.7 11.3 0.00 0.00 0.00 82 1011.8
20260507103847 -2 99 8.0 11.3 0.00 0.00 0.00 82 1011.8
20260507103348 -2 78 6.4 11.3 0.00 0.00 0.00 82 1011.8
20260507102847 -1 97 9.7 11.3 0.00 0.00 0.00 81 1011.7
20260507102347 -1 96 9.7 14.5 0.00 0.00 0.00 81 1011.7
20260507101846 -1 102 9.7 14.5 0.00 0.00 0.00 80 1011.7
20260507101347 -1 92 6.4 19.3 0.00 0.00 0.00 80 1011.7
20260507100846 -1 102 8.0 19.3 0.00 0.00 0.00 80 1011.8
20260507100347 -1 69 9.7 14.5 0.00 0.00 0.00 79 1011.8
20260507095847 -1 86 9.7 14.5 0.00 0.00 0.00 78 1011.7
20260507095345 -1 94 9.7 16.1 0.00 0.00 0.00 78 1011.8
20260507094845 -1 63 12.9 16.1 0.00 0.00 0.00 78 1011.8
20260507094346 -1 82 9.7 19.3 0.00 0.00 0.00 77 1011.7
20260507093346 0 62 12.9 19.3 0.00 0.00 0.00 74 1011.9
20260507092845 0 87 8.0 19.3 0.00 0.00 0.00 74 1011.8
20260507092346 0 56 14.5 17.7 0.00 0.00 0.00 74 1011.9
20260507091845 0 71 11.3 19.3 0.00 0.00 0.00 73 1011.9
20260507091346 0 68 14.5 19.3 0.00 0.00 0.00 73 1011.8
20260507090845 -17 58 14.5 16.1 0.00 0.00 0.00 1012.0
20260507090345 1 87 9.7 17.7 0.00 0.00 0.00 73 1012.0
20260507085845 1 73 14.5 17.7 0.00 0.00 0.00 73 1012.0
20260507085344 1 61 14.5 17.7 0.00 0.00 0.00 73 1012.2
20260507084847 1 80 9.7 14.5 0.00 0.00 0.00 73 1012.2
20260507084341 1 100 9.7 11.3 0.00 0.00 0.00 73 1012.0
20260507083843 1 93 9.7 11.3 0.00 0.00 0.00 74 1012.2
20260507083343 1 116 8.0 11.3 0.00 0.00 0.00 74 1012.3
20260507082841 1 100 9.7 11.3 0.00 0.00 0.00 75 1012.4
20260507082343 1 106 8.0 11.3 0.00 0.00 0.00 75 1012.3
20260507081844 1 97 8.0 11.3 0.00 0.00 0.00 76 1012.4
20260507081345 1 103 9.7 11.3 0.00 0.00 0.00 76 1012.5
20260507080844 1 93 9.7 11.3 0.00 0.00 0.00 76 1012.5
20260507080343 -17 94 9.7 9.7 0.00 0.00 0.00 1012.5
20260507075842 -17 96 8.0 11.3 0.00 0.00 0.00 1012.5
20260507075343 0 94 9.7 11.3 0.00 0.00 0.00 77 1012.5
20260507074844 0 93 8.0 11.3 0.00 0.00 0.00 78 1012.6
20260507074344 0 102 9.7 11.3 0.00 0.00 0.00 77 1012.6
20260507073343 0 94 9.7 11.3 0.00 0.00 0.00 76 1012.7
20260507072842 0 103 9.7 11.3 0.00 0.00 0.00 76 1012.7
20260507071341 0 83 6.4 9.7 0.00 0.00 0.00 77 1012.9
20260507070342 -17 99 8.0 11.3 0.00 0.00 0.00 1013.0
20260507065843 -17 87 8.0 9.7 0.00 0.00 0.00 1013.0
20260507065343 -1 97 6.4 9.7 0.00 0.00 0.00 78 1013.1
20260507063841 -1 100 9.7 11.3 0.00 0.00 0.00 76 1013.1
20260507063342 -1 111 11.3 11.3 0.00 0.00 0.00 75 1013.1
20260507062841 0 111 9.7 11.3 0.00 0.00 0.00 74 1013.2
20260507062339 0 110 9.7 11.3 0.00 0.00 0.00 74 1013.2
20260507061839 0 104 8.0 8.0 0.00 0.00 0.00 74 1013.3
20260507061340 0 0.0 0.0 0.00 0.00 0.00 74 1013.3
20260507060839 0 0.0 14.5 0.00 0.00 0.00 72 1013.3
20260507055340 0 82 8.0 17.7 0.00 0.00 0.00 72 1013.3
20260507054839 0 100 12.9 19.3 0.00 0.00 0.00 73 1013.3
20260507054339 0 65 12.9 19.3 0.00 0.00 0.00 74 1013.4
20260507053839 0 78 9.7 14.5 0.00 0.00 0.00 74 1013.4
20260507053339 0 99 8.0 14.5 0.00 0.00 0.00 75 1013.4
20260507052839 0 99 9.7 14.5 0.00 0.00 0.00 76 1013.4
20260507052340 0 100 11.3 14.5 0.00 0.00 0.00 76 1013.4
20260507051838 0 104 9.7 14.5 0.00 0.00 0.00 75 1013.5
20260507051338 -1 100 9.7 14.5 0.00 0.00 0.00 76 1013.3
20260507050838 -1 106 12.9 14.5 0.00 0.00 0.00 75 1013.4
20260507050336 -1 109 12.9 16.1 0.00 0.00 0.00 73 1013.4
20260507045338 0 110 11.3 11.3 0.00 0.00 0.00 72 1013.6